Time,TemperatureF,DewpointF,PressureIn,WindDirection,WindDirectionDegrees,WindSpeedMPH,WindSpeedGustMPH,Humidity,HourlyPrecipIn,Conditions,Clouds,dailyrainin,SolarRadiationWatts/m^2,SoftwareType,DateUTC
2013-01-06 00:05:00,23.7,20.4,30.21,West,273,0.0,0.0,87,0.00,,,0.00,32767.00,ALWS 1.0-beta,2013-01-06 05:05:00,
2013-01-06 00:10:00,23.8,20.8,30.21,West,273,0.0,0.0,88,0.00,,,0.00,32767.00,ALWS 1.0-beta,2013-01-06 05:10:00,
2013-01-06 00:15:00,24.0,20.7,30.22,West,273,0.0,0.0,87,0.00,,,0.00,32767.00,ALWS 1.0-beta,2013-01-06 05:15:00,
2013-01-06 00:20:00,24.0,20.7,30.22,West,272,0.0,0.0,87,0.00,,,0.00,32767.00,ALWS 1.0-beta,2013-01-06 05:20:00,
2013-01-06 00:25:00,24.0,20.7,30.23,West,273,0.0,0.0,87,0.00,,,0.00,32767.00,ALWS 1.0-beta,2013-01-06 05:25:00,
2013-01-06 00:30:00,24.1,21.1,30.24,West,272,0.0,0.0,88,0.00,,,0.00,32767.00,ALWS 1.0-beta,2013-01-06 05:30:00,
2013-01-06 00:35:00,24.5,21.5,30.24,West,272,0.0,0.0,88,0.00,,,0.00,32767.00,ALWS 1.0-beta,2013-01-06 05:35:00,
2013-01-06 00:40:00,24.7,21.4,30.23,West,273,0.0,0.0,87,0.00,,,0.00,32767.00,ALWS 1.0-beta,2013-01-06 05:40:00,
2013-01-06 00:45:00,24.8,21.5,30.23,West,273,0.0,0.0,87,0.00,,,0.00,32767.00,ALWS 1.0-beta,2013-01-06 05:45:00,
2013-01-06 00:50:00,25.2,21.6,30.23,West,273,0.0,0.0,86,0.00,,,0.00,32767.00,ALWS 1.0-beta,2013-01-06 05:50:00,
2013-01-06 00:55:00,25.3,22.0,30.23,West,272,0.0,0.0,87,0.00,,,0.00,32767.00,ALWS 1.0-beta,2013-01-06 05:55:00,
2013-01-06 01:00:00,25.2,21.9,30.23,West,273,0.0,0.0,87,0.00,,,0.00,32767.00,ALWS 1.0-beta,2013-01-06 06:00:00,
2013-01-06 01:05:00,25.2,21.9,30.23,West,273,0.0,0.0,87,0.00,,,0.00,32767.00,ALWS 1.0-beta,2013-01-06 06:05:00,
2013-01-06 01:10:00,25.3,21.7,30.24,West,273,0.0,0.0,86,0.00,,,0.00,32767.00,ALWS 1.0-beta,2013-01-06 06:10:00,
2013-01-06 01:15:00,25.4,21.8,30.23,West,272,0.0,0.0,86,0.00,,,0.00,32767.00,ALWS 1.0-beta,2013-01-06 06:15:00,
2013-01-06 01:20:00,25.5,21.9,30.22,West,273,0.0,0.0,86,0.00,,,0.00,32767.00,ALWS 1.0-beta,2013-01-06 06:20:00,
2013-01-06 01:25:00,25.6,22.3,30.23,West,273,0.0,0.0,87,0.00,,,0.00,32767.00,ALWS 1.0-beta,2013-01-06 06:25:00,
2013-01-06 01:30:00,25.7,22.1,30.23,West,272,0.0,0.0,86,0.00,,,0.00,32767.00,ALWS 1.0-beta,2013-01-06 06:30:00,
2013-01-06 01:35:00,25.9,22.3,30.20,West,273,0.0,1.0,86,0.00,,,0.00,32767.00,ALWS 1.0-beta,2013-01-06 06:35:00,
2013-01-06 01:40:00,26.1,22.2,30.20,SSE,149,0.0,1.0,85,0.00,,,0.00,32767.00,ALWS 1.0-beta,2013-01-06 06:40:00,
2013-01-06 01:45:00,26.3,22.1,30.21,SSE,149,0.0,0.0,84,0.00,,,0.00,32767.00,ALWS 1.0-beta,2013-01-06 06:45:00,
2013-01-06 01:50:00,26.4,22.0,30.21,SSE,149,0.0,0.0,83,0.00,,,0.00,32767.00,ALWS 1.0-beta,2013-01-06 06:50:00,
2013-01-06 01:55:00,26.5,22.0,30.21,SSE,149,0.0,0.0,83,0.00,,,0.00,32767.00,ALWS 1.0-beta,2013-01-06 06:55:00,
2013-01-06 02:00:00,26.5,22.0,30.21,SSE,149,0.0,0.0,83,0.00,,,0.00,32767.00,ALWS 1.0-beta,2013-01-06 07:00:00,
2013-01-06 02:05:00,26.6,22.1,30.22,SSE,149,0.0,0.0,83,0.00,,,0.00,32767.00,ALWS 1.0-beta,2013-01-06 07:05:00,
2013-01-06 02:10:00,26.6,22.4,30.21,South,179,0.0,0.0,84,0.00,,,0.00,32767.00,ALWS 1.0-beta,2013-01-06 07:10:00,
2013-01-06 02:15:00,26.6,22.7,30.21,South,178,0.0,0.0,85,0.00,,,0.00,32767.00,ALWS 1.0-beta,2013-01-06 07:15:00,
2013-01-06 02:20:00,26.9,23.0,30.21,SW,232,0.0,0.0,85,0.00,,,0.00,32767.00,ALWS 1.0-beta,2013-01-06 07:20:00,
2013-01-06 02:25:00,26.9,23.3,30.20,SW,232,0.0,0.0,86,0.00,,,0.00,32767.00,ALWS 1.0-beta,2013-01-06 07:25:00,
2013-01-06 02:30:00,26.6,23.0,30.20,SW,232,0.0,0.0,86,0.00,,,0.00,32767.00,ALWS 1.0-beta,2013-01-06 07:30:00,
2013-01-06 02:35:00,26.3,23.0,30.20,SW,232,0.0,0.0,87,0.00,,,0.00,32767.00,ALWS 1.0-beta,2013-01-06 07:35:00,
2013-01-06 02:40:00,26.2,23.1,30.19,SW,232,0.0,0.0,88,0.00,,,0.00,32767.00,ALWS 1.0-beta,2013-01-06 07:40:00,
2013-01-06 02:45:00,26.1,23.0,30.20,SW,232,0.0,0.0,88,0.00,,,0.00,32767.00,ALWS 1.0-beta,2013-01-06 07:45:00,
2013-01-06 02:50:00,26.1,23.3,30.20,SW,232,0.0,0.0,89,0.00,,,0.00,32767.00,ALWS 1.0-beta,2013-01-06 07:50:00,
2013-01-06 02:55:00,26.1,23.3,30.20,SW,232,0.0,0.0,89,0.00,,,0.00,32767.00,ALWS 1.0-beta,2013-01-06 07:55:00,
2013-01-06 03:00:00,26.0,23.2,30.19,SW,232,0.0,0.0,89,0.00,,,0.00,32767.00,ALWS 1.0-beta,2013-01-06 08:00:00,
2013-01-06 03:05:00,26.0,23.5,30.19,SW,232,0.0,0.0,90,0.00,,,0.00,32767.00,ALWS 1.0-beta,2013-01-06 08:05:00,
2013-01-06 03:10:00,25.9,23.4,30.18,SW,232,0.0,0.0,90,0.00,,,0.00,32767.00,ALWS 1.0-beta,2013-01-06 08:10:00,
2013-01-06 03:15:00,25.9,23.4,30.18,SW,232,0.0,0.0,90,0.00,,,0.00,32767.00,ALWS 1.0-beta,2013-01-06 08:15:00,
2013-01-06 03:20:00,25.9,23.4,30.18,SW,232,0.0,0.0,90,0.00,,,0.00,32767.00,ALWS 1.0-beta,2013-01-06 08:20:00,
2013-01-06 03:25:00,26.0,23.5,30.18,SW,232,0.0,0.0,90,0.00,,,0.00,32767.00,ALWS 1.0-beta,2013-01-06 08:25:00,
2013-01-06 03:30:00,26.1,23.6,30.18,SW,232,0.0,0.0,90,0.00,,,0.00,32767.00,ALWS 1.0-beta,2013-01-06 08:30:00,
2013-01-06 03:35:00,26.2,23.7,30.18,SW,232,0.0,0.0,90,0.00,,,0.00,32767.00,ALWS 1.0-beta,2013-01-06 08:35:00,
2013-01-06 03:40:00,26.2,23.7,30.17,SW,232,0.0,0.0,90,0.00,,,0.00,32767.00,ALWS 1.0-beta,2013-01-06 08:40:00,
2013-01-06 03:45:00,26.2,23.7,30.17,SW,232,0.0,0.0,90,0.00,,,0.00,32767.00,ALWS 1.0-beta,2013-01-06 08:45:00,
2013-01-06 03:50:00,26.2,23.7,30.17,SW,232,0.0,0.0,90,0.00,,,0.00,32767.00,ALWS 1.0-beta,2013-01-06 08:50:00,
2013-01-06 03:55:00,26.1,23.6,30.17,SW,232,0.0,0.0,90,0.00,,,0.00,32767.00,ALWS 1.0-beta,2013-01-06 08:55:00,
2013-01-06 04:00:00,26.1,23.6,30.17,SW,232,0.0,0.0,90,0.00,,,0.00,32767.00,ALWS 1.0-beta,2013-01-06 09:00:00,
2013-01-06 04:05:00,26.1,23.6,30.17,SW,232,0.0,0.0,90,0.00,,,0.00,32767.00,ALWS 1.0-beta,2013-01-06 09:05:00,
2013-01-06 04:10:00,26.3,24.0,30.17,SW,232,0.0,0.0,91,0.00,,,0.00,32767.00,ALWS 1.0-beta,2013-01-06 09:10:00,
2013-01-06 04:15:00,26.5,24.2,30.16,SW,232,0.0,0.0,91,0.00,,,0.00,32767.00,ALWS 1.0-beta,2013-01-06 09:15:00,
2013-01-06 04:20:00,26.6,24.3,30.16,SW,232,0.0,0.0,91,0.00,,,0.00,32767.00,ALWS 1.0-beta,2013-01-06 09:20:00,
2013-01-06 04:25:00,26.7,24.4,30.16,West,265,0.0,0.0,91,0.00,,,0.00,32767.00,ALWS 1.0-beta,2013-01-06 09:25:00,
2013-01-06 04:30:00,26.9,24.6,30.15,West,265,0.0,0.0,91,0.00,,,0.00,32767.00,ALWS 1.0-beta,2013-01-06 09:30:00,
2013-01-06 04:35:00,27.1,24.8,30.15,West,265,0.0,0.0,91,0.00,,,0.00,32767.00,ALWS 1.0-beta,2013-01-06 09:35:00,
2013-01-06 04:40:00,27.2,24.7,30.15,West,265,0.0,0.0,90,0.00,,,0.00,32767.00,ALWS 1.0-beta,2013-01-06 09:40:00,
2013-01-06 04:45:00,27.3,24.8,30.15,West,265,0.0,0.0,90,0.00,,,0.00,32767.00,ALWS 1.0-beta,2013-01-06 09:45:00,
2013-01-06 04:50:00,27.4,24.9,30.14,West,265,0.0,0.0,90,0.00,,,0.00,32767.00,ALWS 1.0-beta,2013-01-06 09:50:00,
2013-01-06 04:55:00,27.4,24.9,30.14,West,265,0.0,0.0,90,0.00,,,0.00,32767.00,ALWS 1.0-beta,2013-01-06 09:55:00,
2013-01-06 05:00:00,27.5,25.0,30.14,West,265,0.0,0.0,90,0.00,,,0.00,32767.00,ALWS 1.0-beta,2013-01-06 10:00:00,
2013-01-06 05:05:00,27.5,25.0,30.13,West,265,0.0,0.0,90,0.00,,,0.00,32767.00,ALWS 1.0-beta,2013-01-06 10:05:00,
2013-01-06 05:10:00,27.5,25.0,30.14,West,265,0.0,0.0,90,0.00,,,0.00,32767.00,ALWS 1.0-beta,2013-01-06 10:10:00,
2013-01-06 05:15:00,27.4,24.9,30.14,West,265,0.0,0.0,90,0.00,,,0.00,32767.00,ALWS 1.0-beta,2013-01-06 10:15:00,
2013-01-06 05:20:00,27.5,25.0,30.13,West,265,0.0,0.0,90,0.00,,,0.00,32767.00,ALWS 1.0-beta,2013-01-06 10:20:00,
2013-01-06 05:25:00,27.6,25.1,30.13,West,265,0.0,0.0,90,0.00,,,0.00,32767.00,ALWS 1.0-beta,2013-01-06 10:25:00,
2013-01-06 05:30:00,27.6,25.1,30.13,West,265,0.0,0.0,90,0.00,,,0.00,32767.00,ALWS 1.0-beta,2013-01-06 10:30:00,
2013-01-06 05:35:00,27.6,24.8,30.13,West,265,0.0,0.0,89,0.00,,,0.00,32767.00,ALWS 1.0-beta,2013-01-06 10:35:00,
2013-01-06 05:40:00,27.6,25.1,30.13,West,265,0.0,0.0,90,0.00,,,0.00,32767.00,ALWS 1.0-beta,2013-01-06 10:40:00,
2013-01-06 05:45:00,27.6,25.1,30.13,West,265,0.0,0.0,90,0.00,,,0.00,32767.00,ALWS 1.0-beta,2013-01-06 10:45:00,
2013-01-06 05:50:00,27.6,24.8,30.13,West,265,0.0,0.0,89,0.00,,,0.00,32767.00,ALWS 1.0-beta,2013-01-06 10:50:00,
2013-01-06 05:55:00,27.5,24.7,30.13,West,265,0.0,0.0,89,0.00,,,0.00,32767.00,ALWS 1.0-beta,2013-01-06 10:55:00,
2013-01-06 06:00:00,27.1,24.3,30.13,West,265,0.0,0.0,89,0.00,,,0.00,32767.00,ALWS 1.0-beta,2013-01-06 11:00:00,
2013-01-06 06:05:00,26.7,23.9,30.13,West,265,0.0,0.0,89,0.00,,,0.00,32767.00,ALWS 1.0-beta,2013-01-06 11:05:00,
2013-01-06 06:10:00,26.4,23.9,30.13,West,265,0.0,0.0,90,0.00,,,0.00,32767.00,ALWS 1.0-beta,2013-01-06 11:10:00,
2013-01-06 06:15:00,26.2,23.7,30.13,West,265,0.0,0.0,90,0.00,,,0.00,32767.00,ALWS 1.0-beta,2013-01-06 11:15:00,
2013-01-06 06:20:00,26.1,23.6,30.13,West,265,0.0,0.0,90,0.00,,,0.00,32767.00,ALWS 1.0-beta,2013-01-06 11:20:00,
2013-01-06 06:25:00,26.2,23.9,30.12,West,265,0.0,0.0,91,0.00,,,0.00,32767.00,ALWS 1.0-beta,2013-01-06 11:25:00,
2013-01-06 06:30:00,26.3,24.0,30.13,West,265,0.0,0.0,91,0.00,,,0.00,32767.00,ALWS 1.0-beta,2013-01-06 11:30:00,
2013-01-06 06:35:00,26.5,24.2,30.12,West,265,0.0,0.0,91,0.00,,,0.00,32767.00,ALWS 1.0-beta,2013-01-06 11:35:00,
2013-01-06 06:40:00,26.6,24.1,30.12,West,265,0.0,0.0,90,0.00,,,0.00,32767.00,ALWS 1.0-beta,2013-01-06 11:40:00,
2013-01-06 06:45:00,26.6,24.1,30.12,West,265,0.0,0.0,90,0.00,,,0.00,32767.00,ALWS 1.0-beta,2013-01-06 11:45:00,
2013-01-06 06:50:00,26.5,24.0,30.12,West,265,0.0,0.0,90,0.00,,,0.00,32767.00,ALWS 1.0-beta,2013-01-06 11:50:00,
2013-01-06 06:55:00,26.3,23.5,30.12,West,265,0.0,0.0,89,0.00,,,0.00,32767.00,ALWS 1.0-beta,2013-01-06 11:55:00,
2013-01-06 07:00:00,26.3,23.8,30.12,West,265,0.0,0.0,90,0.00,,,0.00,32767.00,ALWS 1.0-beta,2013-01-06 12:00:00,
2013-01-06 07:05:00,26.3,23.8,30.12,West,265,0.0,0.0,90,0.00,,,0.00,32767.00,ALWS 1.0-beta,2013-01-06 12:05:00,
2013-01-06 07:10:00,26.3,23.8,30.12,West,265,0.0,0.0,90,0.00,,,0.00,32767.00,ALWS 1.0-beta,2013-01-06 12:10:00,
2013-01-06 07:15:00,26.1,23.6,30.12,West,265,0.0,0.0,90,0.00,,,0.00,32767.00,ALWS 1.0-beta,2013-01-06 12:15:00,
2013-01-06 07:20:00,25.4,22.6,30.11,West,265,0.0,0.0,89,0.00,,,0.00,32767.00,ALWS 1.0-beta,2013-01-06 12:20:00,
2013-01-06 07:25:00,25.2,22.7,30.11,West,265,0.0,0.0,90,0.00,,,0.00,32767.00,ALWS 1.0-beta,2013-01-06 12:25:00,
2013-01-06 07:30:00,24.8,22.3,30.11,West,265,0.0,0.0,90,0.00,,,0.00,32767.00,ALWS 1.0-beta,2013-01-06 12:30:00,
2013-01-06 07:35:00,24.7,22.5,30.11,West,265,0.0,0.0,91,0.00,,,0.00,32767.00,ALWS 1.0-beta,2013-01-06 12:35:00,
2013-01-06 07:40:00,24.5,22.2,30.12,West,265,0.0,0.0,91,0.00,,,0.00,32767.00,ALWS 1.0-beta,2013-01-06 12:40:00,
2013-01-06 07:45:00,23.9,21.7,30.11,West,265,0.0,0.0,91,0.00,,,0.00,32767.00,ALWS 1.0-beta,2013-01-06 12:45:00,
2013-01-06 07:50:00,23.9,21.9,30.11,West,265,0.0,0.0,92,0.00,,,0.00,32767.00,ALWS 1.0-beta,2013-01-06 12:50:00,
2013-01-06 07:55:00,24.1,22.1,30.11,West,265,0.0,0.0,92,0.00,,,0.00,32767.00,ALWS 1.0-beta,2013-01-06 12:55:00,
2013-01-06 08:00:00,24.0,22.3,30.11,West,265,0.0,0.0,93,0.00,,,0.00,32767.00,ALWS 1.0-beta,2013-01-06 13:00:00,
2013-01-06 08:05:00,23.6,21.6,30.11,West,265,0.0,0.0,92,0.00,,,0.00,32767.00,ALWS 1.0-beta,2013-01-06 13:05:00,
2013-01-06 08:10:00,23.2,21.2,30.11,West,265,0.0,0.0,92,0.00,,,0.00,32767.00,ALWS 1.0-beta,2013-01-06 13:10:00,
2013-01-06 08:15:00,23.0,21.0,30.12,West,265,0.0,0.0,92,0.00,,,0.00,32767.00,ALWS 1.0-beta,2013-01-06 13:15:00,
2013-01-06 08:20:00,23.8,22.1,30.11,West,265,0.0,0.0,93,0.00,,,0.00,32767.00,ALWS 1.0-beta,2013-01-06 13:20:00,
2013-01-06 08:25:00,24.2,22.5,30.12,West,265,0.0,0.0,93,0.00,,,0.00,32767.00,ALWS 1.0-beta,2013-01-06 13:25:00,
2013-01-06 08:30:00,24.7,23.0,30.11,West,265,0.0,0.0,93,0.00,,,0.00,32767.00,ALWS 1.0-beta,2013-01-06 13:30:00,
2013-01-06 08:35:00,24.9,22.9,30.11,West,265,0.0,0.0,92,0.00,,,0.00,32767.00,ALWS 1.0-beta,2013-01-06 13:35:00,
2013-01-06 08:40:00,25.1,23.1,30.10,West,265,0.0,0.0,92,0.00,,,0.00,32767.00,ALWS 1.0-beta,2013-01-06 13:40:00,
2013-01-06 08:45:00,25.7,23.4,30.11,West,265,0.0,0.0,91,0.00,,,0.00,32767.00,ALWS 1.0-beta,2013-01-06 13:45:00,
2013-01-06 08:50:00,25.8,23.5,30.10,West,265,0.0,0.0,91,0.00,,,0.00,32767.00,ALWS 1.0-beta,2013-01-06 13:50:00,
2013-01-06 08:55:00,26.2,23.7,30.11,West,265,0.0,0.0,90,0.00,,,0.00,32767.00,ALWS 1.0-beta,2013-01-06 13:55:00,
2013-01-06 09:00:00,26.9,24.1,30.10,West,265,0.0,0.0,89,0.00,,,0.00,32767.00,ALWS 1.0-beta,2013-01-06 14:00:00,
2013-01-06 09:05:00,27.5,24.4,30.11,West,265,0.0,0.0,88,0.00,,,0.00,32767.00,ALWS 1.0-beta,2013-01-06 14:05:00,
2013-01-06 09:10:00,28.1,24.5,30.11,West,265,0.0,0.0,86,0.00,,,0.00,32767.00,ALWS 1.0-beta,2013-01-06 14:10:00,
2013-01-06 09:15:00,29.4,24.9,30.11,West,265,0.0,0.0,83,0.00,,,0.00,32767.00,ALWS 1.0-beta,2013-01-06 14:15:00,
2013-01-06 09:20:00,29.7,24.6,30.11,West,265,0.0,0.0,81,0.00,,,0.00,32767.00,ALWS 1.0-beta,2013-01-06 14:20:00,
2013-01-06 09:25:00,29.3,23.9,30.11,West,265,0.0,0.0,80,0.00,,,0.00,32767.00,ALWS 1.0-beta,2013-01-06 14:25:00,
2013-01-06 09:30:00,29.9,24.5,30.11,West,265,0.0,0.0,80,0.00,,,0.00,32767.00,ALWS 1.0-beta,2013-01-06 14:30:00,
2013-01-06 09:35:00,30.1,24.4,30.11,West,265,0.0,0.0,79,0.00,,,0.00,32767.00,ALWS 1.0-beta,2013-01-06 14:35:00,
2013-01-06 09:40:00,30.8,25.1,30.11,West,265,0.0,0.0,79,0.00,,,0.00,32767.00,ALWS 1.0-beta,2013-01-06 14:40:00,
2013-01-06 09:45:00,31.2,25.1,30.11,South,178,0.0,0.0,78,0.00,,,0.00,32767.00,ALWS 1.0-beta,2013-01-06 14:45:00,
2013-01-06 09:50:00,31.3,24.9,30.11,South,180,0.0,0.0,77,0.00,,,0.00,32767.00,ALWS 1.0-beta,2013-01-06 14:50:00,
2013-01-06 09:55:00,31.5,25.1,30.11,South,180,0.0,2.0,77,0.00,,,0.00,32767.00,ALWS 1.0-beta,2013-01-06 14:55:00,
2013-01-06 10:00:00,32.1,25.7,30.11,South,181,3.0,3.0,77,0.00,,,0.00,32767.00,ALWS 1.0-beta,2013-01-06 15:00:00,
2013-01-06 10:05:00,32.1,25.4,30.11,SSW,199,0.0,1.0,76,0.00,,,0.00,32767.00,ALWS 1.0-beta,2013-01-06 15:05:00,
2013-01-06 10:10:00,32.3,25.9,30.11,SSE,163,0.0,0.0,77,0.00,,,0.00,32767.00,ALWS 1.0-beta,2013-01-06 15:10:00,
2013-01-06 10:15:00,32.9,26.2,30.11,South,178,0.0,0.0,76,0.00,,,0.00,32767.00,ALWS 1.0-beta,2013-01-06 15:15:00,
2013-01-06 10:20:00,33.2,26.1,30.11,South,183,0.0,0.0,75,0.00,,,0.00,32767.00,ALWS 1.0-beta,2013-01-06 15:20:00,
2013-01-06 10:25:00,33.3,26.6,30.11,South,184,0.0,1.0,76,0.00,,,0.00,32767.00,ALWS 1.0-beta,2013-01-06 15:25:00,
2013-01-06 10:30:00,33.5,26.4,30.10,SSW,202,0.0,0.0,75,0.00,,,0.00,32767.00,ALWS 1.0-beta,2013-01-06 15:30:00,
2013-01-06 10:35:00,33.5,26.4,30.10,SSE,155,0.0,0.0,75,0.00,,,0.00,32767.00,ALWS 1.0-beta,2013-01-06 15:35:00,
2013-01-06 10:40:00,34.1,26.7,30.10,South,187,1.0,1.0,74,0.00,,,0.00,32767.00,ALWS 1.0-beta,2013-01-06 15:40:00,
2013-01-06 10:45:00,34.4,26.7,30.09,South,187,0.0,0.0,73,0.00,,,0.00,32767.00,ALWS 1.0-beta,2013-01-06 15:45:00,
2013-01-06 10:50:00,34.4,26.7,30.08,South,186,0.0,0.0,73,0.00,,,0.00,32767.00,ALWS 1.0-beta,2013-01-06 15:50:00,
2013-01-06 10:55:00,35.2,26.8,30.08,South,186,0.0,0.0,71,0.00,,,0.00,32767.00,ALWS 1.0-beta,2013-01-06 15:55:00,
2013-01-06 11:00:00,36.0,27.5,30.08,South,170,0.0,5.0,71,0.00,,,0.00,32767.00,ALWS 1.0-beta,2013-01-06 16:00:00,
2013-01-06 11:05:00,36.2,27.4,30.07,SSW,213,0.0,1.0,70,0.00,,,0.00,32767.00,ALWS 1.0-beta,2013-01-06 16:05:00,
2013-01-06 11:10:00,36.4,27.2,30.07,SSW,209,0.0,0.0,69,0.00,,,0.00,32767.00,ALWS 1.0-beta,2013-01-06 16:10:00,
2013-01-06 11:15:00,36.7,27.9,30.07,SW,229,1.0,2.0,70,0.00,,,0.00,32767.00,ALWS 1.0-beta,2013-01-06 16:15:00,
2013-01-06 11:20:00,36.9,27.3,30.06,WSW,244,2.0,2.0,68,0.00,,,0.00,32767.00,ALWS 1.0-beta,2013-01-06 16:20:00,
2013-01-06 11:25:00,36.8,27.6,30.06,South,187,0.0,0.0,69,0.00,,,0.00,32767.00,ALWS 1.0-beta,2013-01-06 16:25:00,
2013-01-06 11:30:00,37.1,27.2,30.05,SW,233,0.0,0.0,67,0.00,,,0.00,32767.00,ALWS 1.0-beta,2013-01-06 16:30:00,
2013-01-06 11:35:00,37.2,27.6,30.05,SSW,192,0.0,0.0,68,0.00,,,0.00,32767.00,ALWS 1.0-beta,2013-01-06 16:35:00,
2013-01-06 11:40:00,37.7,27.8,30.05,SSW,213,1.0,1.0,67,0.00,,,0.00,32767.00,ALWS 1.0-beta,2013-01-06 16:40:00,
2013-01-06 11:45:00,37.8,27.8,30.04,SSW,193,0.0,2.0,67,0.00,,,0.00,32767.00,ALWS 1.0-beta,2013-01-06 16:45:00,
2013-01-06 11:50:00,38.2,27.5,30.04,WSW,242,0.0,1.0,65,0.00,,,0.00,32767.00,ALWS 1.0-beta,2013-01-06 16:50:00,
2013-01-06 11:55:00,38.4,27.7,30.04,SW,223,0.0,0.0,65,0.00,,,0.00,32767.00,ALWS 1.0-beta,2013-01-06 16:55:00,
2013-01-06 12:00:00,38.7,27.6,30.04,SSW,203,0.0,1.0,64,0.00,,,0.00,32767.00,ALWS 1.0-beta,2013-01-06 17:00:00,
2013-01-06 12:05:00,38.9,27.8,30.03,SSW,205,0.0,0.0,64,0.00,,,0.00,32767.00,ALWS 1.0-beta,2013-01-06 17:05:00,
2013-01-06 12:10:00,39.2,28.1,30.03,SSW,194,1.0,1.0,64,0.00,,,0.00,32767.00,ALWS 1.0-beta,2013-01-06 17:10:00,
2013-01-06 12:15:00,39.6,28.1,30.03,South,188,0.0,6.0,63,0.00,,,0.00,32767.00,ALWS 1.0-beta,2013-01-06 17:15:00,
2013-01-06 12:20:00,39.7,27.8,30.02,SSE,156,6.0,6.0,62,0.00,,,0.00,32767.00,ALWS 1.0-beta,2013-01-06 17:20:00,
2013-01-06 12:25:00,39.8,28.2,30.02,SSW,199,1.0,1.0,63,0.00,,,0.00,32767.00,ALWS 1.0-beta,2013-01-06 17:25:00,
2013-01-06 12:30:00,40.3,28.3,30.02,South,191,1.0,1.0,62,0.00,,,0.00,32767.00,ALWS 1.0-beta,2013-01-06 17:30:00,
2013-01-06 12:35:00,40.4,28.0,30.02,SE,138,0.0,4.0,61,0.00,,,0.00,32767.00,ALWS 1.0-beta,2013-01-06 17:35:00,
2013-01-06 12:40:00,40.7,27.9,30.02,SW,215,0.0,0.0,60,0.00,,,0.00,32767.00,ALWS 1.0-beta,2013-01-06 17:40:00,
2013-01-06 12:45:00,40.9,28.9,30.01,SW,227,1.0,4.0,62,0.00,,,0.00,32767.00,ALWS 1.0-beta,2013-01-06 17:45:00,
2013-01-06 12:50:00,40.5,28.1,30.01,WSW,238,0.0,5.0,61,0.00,,,0.00,32767.00,ALWS 1.0-beta,2013-01-06 17:50:00,
2013-01-06 12:55:00,40.3,27.9,30.01,WSW,238,0.0,0.0,61,0.00,,,0.00,32767.00,ALWS 1.0-beta,2013-01-06 17:55:00,
2013-01-06 13:00:00,40.5,28.1,30.01,SW,221,1.0,1.0,61,0.00,,,0.00,32767.00,ALWS 1.0-beta,2013-01-06 18:00:00,
2013-01-06 13:05:00,40.5,28.1,30.01,WSW,244,0.0,2.0,61,0.00,,,0.00,32767.00,ALWS 1.0-beta,2013-01-06 18:05:00,
2013-01-06 13:10:00,41.0,28.2,30.00,WSW,257,2.0,3.0,60,0.00,,,0.00,32767.00,ALWS 1.0-beta,2013-01-06 18:10:00,
2013-01-06 13:15:00,41.3,28.5,30.00,SE,127,4.0,4.0,60,0.00,,,0.00,32767.00,ALWS 1.0-beta,2013-01-06 18:15:00,
2013-01-06 13:20:00,41.4,28.2,30.00,SSW,213,0.0,0.0,59,0.00,,,0.00,32767.00,ALWS 1.0-beta,2013-01-06 18:20:00,
2013-01-06 13:25:00,41.5,27.8,30.00,ESE,122,5.0,5.0,58,0.00,,,0.00,32767.00,ALWS 1.0-beta,2013-01-06 18:25:00,
2013-01-06 13:30:00,41.9,28.2,30.00,SSW,200,0.0,5.0,58,0.00,,,0.00,32767.00,ALWS 1.0-beta,2013-01-06 18:30:00,
2013-01-06 13:35:00,41.6,28.4,29.99,SSW,200,0.0,0.0,59,0.00,,,0.00,32767.00,ALWS 1.0-beta,2013-01-06 18:35:00,
2013-01-06 13:40:00,41.6,28.8,29.99,SW,222,0.0,1.0,60,0.00,,,0.00,32767.00,ALWS 1.0-beta,2013-01-06 18:40:00,
2013-01-06 13:45:00,41.8,29.0,29.99,SE,144,4.0,4.0,60,0.00,,,0.00,32767.00,ALWS 1.0-beta,2013-01-06 18:45:00,
2013-01-06 13:50:00,42.2,28.5,29.99,South,184,0.0,0.0,58,0.00,,,0.00,32767.00,ALWS 1.0-beta,2013-01-06 18:50:00,
2013-01-06 13:55:00,42.0,28.7,29.99,South,175,1.0,1.0,59,0.00,,,0.00,32767.00,ALWS 1.0-beta,2013-01-06 18:55:00,
2013-01-06 14:00:00,42.0,29.1,29.99,ESE,116,0.0,5.0,60,0.00,,,0.00,32767.00,ALWS 1.0-beta,2013-01-06 19:00:00,
2013-01-06 14:03:00,41.3,28.9,29.98,South,183,1.0,4.0,61,0.00,,,0.00,32767.00,ALWS 1.0-beta,2013-01-06 19:03:00,
2013-01-06 14:04:00,41.4,29.4,29.98,South,177,0.0,2.0,62,0.00,,,0.00,32767.00,ALWS 1.0-beta,2013-01-06 19:04:00,
2013-01-06 14:05:00,41.3,29.3,29.98,ESE,109,2.0,2.0,62,0.00,,,0.00,32767.00,ALWS 1.0-beta,2013-01-06 19:05:00,
2013-01-06 14:10:00,40.9,29.3,29.98,SE,128,2.0,6.0,63,0.00,,,0.00,32767.00,ALWS 1.0-beta,2013-01-06 19:10:00,
2013-01-06 14:15:00,41.1,29.5,29.98,ESE,117,8.0,8.0,63,0.00,,,0.00,32767.00,ALWS 1.0-beta,2013-01-06 19:15:00,
2013-01-06 14:20:00,41.1,29.5,29.98,SE,126,4.0,4.0,63,0.00,,,0.00,32767.00,ALWS 1.0-beta,2013-01-06 19:20:00,
2013-01-06 14:25:00,41.3,29.7,29.98,SSW,200,0.0,2.0,63,0.00,,,0.00,32767.00,ALWS 1.0-beta,2013-01-06 19:25:00,
2013-01-06 14:30:00,41.4,29.4,29.98,SE,126,4.0,4.0,62,0.00,,,0.00,32767.00,ALWS 1.0-beta,2013-01-06 19:30:00,
2013-01-06 14:35:00,41.3,29.3,29.98,SE,133,6.0,6.0,62,0.00,,,0.00,32767.00,ALWS 1.0-beta,2013-01-06 19:35:00,
2013-01-06 14:37:00,41.3,28.9,29.98,South,184,0.0,0.0,61,0.00,,,0.00,32767.00,ALWS 1.0-beta,2013-01-06 19:37:00,
2013-01-06 14:38:00,41.3,28.9,29.98,South,183,1.0,4.0,61,0.00,,,0.00,32767.00,ALWS 1.0-beta,2013-01-06 19:38:00,
2013-01-06 14:39:00,41.4,29.0,29.98,South,183,0.0,0.0,61,0.00,,,0.00,32767.00,ALWS 1.0-beta,2013-01-06 19:39:00,
2013-01-06 14:40:00,41.1,29.5,29.98,SW,234,0.0,0.0,63,0.00,,,0.00,32767.00,ALWS 1.0-beta,2013-01-06 19:40:00,
2013-01-06 14:41:00,41.4,29.0,29.98,SW,236,0.0,0.0,61,0.00,,,0.00,32767.00,ALWS 1.0-beta,2013-01-06 19:41:00,
2013-01-06 14:42:00,41.4,29.4,29.98,SW,236,0.0,0.0,62,0.00,,,0.00,32767.00,ALWS 1.0-beta,2013-01-06 19:42:00,
2013-01-06 14:43:00,41.3,29.3,29.99,SW,236,0.0,0.0,62,0.00,,,0.00,32767.00,ALWS 1.0-beta,2013-01-06 19:43:00,
2013-01-06 14:47:00,40.9,29.3,29.98,South,182,0.0,0.0,63,0.00,,,0.00,32767.00,ALWS 1.0-beta,2013-01-06 19:47:00,
2013-01-06 14:53:00,41.3,29.3,29.98,SW,219,4.0,4.0,62,0.00,,,0.00,32767.00,ALWS 1.0-beta,2013-01-06 19:53:00,
2013-01-06 14:58:00,41.4,29.4,29.98,South,189,0.0,4.0,62,0.00,,,0.00,32767.00,ALWS 1.0-beta,2013-01-06 19:58:00,
2013-01-06 15:03:00,41.4,29.8,29.98,WSW,237,6.0,6.0,63,0.00,,,0.00,32767.00,ALWS 1.0-beta,2013-01-06 20:03:00,
2013-01-06 15:08:00,41.5,29.5,29.98,SW,215,0.0,1.0,62,0.00,,,0.00,32767.00,ALWS 1.0-beta,2013-01-06 20:08:00,
2013-01-06 15:13:00,41.4,29.0,29.98,South,177,2.0,2.0,61,0.00,,,0.00,32767.00,ALWS 1.0-beta,2013-01-06 20:13:00,
2013-01-06 15:18:00,41.3,29.3,29.98,SW,236,0.0,0.0,62,0.00,,,0.00,32767.00,ALWS 1.0-beta,2013-01-06 20:18:00,
2013-01-06 15:23:00,40.9,29.7,29.98,SW,224,0.0,0.0,64,0.00,,,0.00,32767.00,ALWS 1.0-beta,2013-01-06 20:23:00,
2013-01-06 15:28:00,40.8,29.6,29.98,SSW,194,0.0,0.0,64,0.00,,,0.00,32767.00,ALWS 1.0-beta,2013-01-06 20:28:00,
2013-01-06 15:30:00,40.2,29.0,29.99,SSW,196,0.0,0.0,64,0.00,,,0.00,32767.00,ALWS 1.0-beta,2013-01-06 20:30:00,
2013-01-06 15:31:00,40.2,29.0,29.99,SSW,196,0.0,0.0,64,0.00,,,0.00,32767.00,ALWS 1.0-beta,2013-01-06 20:31:00,
2013-01-06 15:32:00,40.2,29.0,29.99,SSW,195,0.0,0.0,64,0.00,,,0.00,32767.00,ALWS 1.0-beta,2013-01-06 20:32:00,
2013-01-06 15:33:00,40.5,29.3,29.99,SSW,194,0.0,0.0,64,0.00,,,0.00,32767.00,ALWS 1.0-beta,2013-01-06 20:33:00,
2013-01-06 15:38:00,40.7,29.1,29.98,SSW,200,0.0,0.0,63,0.00,,,0.00,32767.00,ALWS 1.0-beta,2013-01-06 20:38:00,
2013-01-06 15:43:00,40.6,29.4,29.98,SSW,200,0.0,1.0,64,0.00,,,0.00,32767.00,ALWS 1.0-beta,2013-01-06 20:43:00,
2013-01-06 15:48:00,40.8,29.2,29.98,SSW,196,2.0,2.0,63,0.00,,,0.00,32767.00,ALWS 1.0-beta,2013-01-06 20:48:00,
2013-01-06 15:53:00,40.8,29.2,29.98,SSW,196,0.0,0.0,63,0.00,,,0.00,32767.00,ALWS 1.0-beta,2013-01-06 20:53:00,
2013-01-06 15:58:00,40.5,29.3,29.98,SSW,196,0.0,0.0,64,0.00,,,0.00,32767.00,ALWS 1.0-beta,2013-01-06 20:58:00,
2013-01-06 16:04:00,40.2,29.0,29.99,SSW,196,0.0,0.0,64,0.00,,,0.00,32767.00,ALWS 1.0-beta,2013-01-06 21:04:00,
2013-01-06 16:07:00,40.2,29.0,29.99,SSW,196,0.0,0.0,64,0.00,,,0.00,32767.00,ALWS 1.0-beta,2013-01-06 21:07:00,
2013-01-06 16:12:00,39.9,29.1,29.99,SSW,196,0.0,0.0,65,0.00,,,0.00,32767.00,ALWS 1.0-beta,2013-01-06 21:12:00,
2013-01-06 16:17:00,39.7,29.3,29.99,SSW,195,0.0,0.0,66,0.00,,,0.00,32767.00,ALWS 1.0-beta,2013-01-06 21:17:00,
2013-01-06 16:22:00,39.6,29.2,29.99,WSW,247,0.0,0.0,66,0.00,,,0.00,32767.00,ALWS 1.0-beta,2013-01-06 21:22:00,
2013-01-06 16:27:00,39.3,29.3,29.98,WSW,247,1.0,2.0,67,0.00,,,0.00,32767.00,ALWS 1.0-beta,2013-01-06 21:27:00,
2013-01-06 16:32:00,39.4,29.0,29.99,WSW,243,2.0,2.0,66,0.00,,,0.00,32767.00,ALWS 1.0-beta,2013-01-06 21:32:00,
2013-01-06 16:37:00,39.6,28.8,29.99,WSW,240,0.0,1.0,65,0.00,,,0.00,32767.00,ALWS 1.0-beta,2013-01-06 21:37:00,
2013-01-06 16:42:00,39.7,28.9,29.99,SW,232,0.0,0.0,65,0.00,,,0.00,32767.00,ALWS 1.0-beta,2013-01-06 21:42:00,
2013-01-06 16:47:00,39.7,28.9,29.99,SW,232,1.0,1.0,65,0.00,,,0.00,32767.00,ALWS 1.0-beta,2013-01-06 21:47:00,
2013-01-06 16:52:00,39.8,29.0,29.99,SW,232,1.0,1.0,65,0.00,,,0.00,32767.00,ALWS 1.0-beta,2013-01-06 21:52:00,
2013-01-06 16:57:00,39.6,28.8,29.99,SW,232,0.0,0.0,65,0.00,,,0.00,32767.00,ALWS 1.0-beta,2013-01-06 21:57:00,
2013-01-06 17:02:00,39.5,29.1,29.99,SW,232,0.0,0.0,66,0.00,,,0.00,32767.00,ALWS 1.0-beta,2013-01-06 22:02:00,
2013-01-06 17:07:00,39.5,29.1,29.99,SW,230,0.0,0.0,66,0.00,,,0.00,32767.00,ALWS 1.0-beta,2013-01-06 22:07:00,
2013-01-06 17:12:00,39.5,29.1,30.00,SW,231,0.0,0.0,66,0.00,,,0.00,32767.00,ALWS 1.0-beta,2013-01-06 22:12:00,
2013-01-06 17:17:00,39.4,29.0,30.00,SW,231,0.0,0.0,66,0.00,,,0.00,32767.00,ALWS 1.0-beta,2013-01-06 22:17:00,
2013-01-06 17:22:00,39.3,28.9,30.00,SW,231,0.0,0.0,66,0.00,,,0.00,32767.00,ALWS 1.0-beta,2013-01-06 22:22:00,
2013-01-06 17:27:00,39.1,28.7,30.00,SW,230,0.0,0.0,66,0.00,,,0.00,32767.00,ALWS 1.0-beta,2013-01-06 22:27:00,
2013-01-06 17:32:00,38.8,28.8,30.00,SW,231,0.0,0.0,67,0.00,,,0.00,32767.00,ALWS 1.0-beta,2013-01-06 22:32:00,
2013-01-06 17:37:00,38.5,28.5,30.00,SW,231,0.0,0.0,67,0.00,,,0.00,32767.00,ALWS 1.0-beta,2013-01-06 22:37:00,
2013-01-06 17:42:00,38.2,28.2,30.00,SW,231,0.0,0.0,67,0.00,,,0.00,32767.00,ALWS 1.0-beta,2013-01-06 22:42:00,
2013-01-06 17:47:00,37.8,28.2,30.00,SW,231,0.0,0.0,68,0.00,,,0.00,32767.00,ALWS 1.0-beta,2013-01-06 22:47:00,
2013-01-06 17:52:00,37.4,27.8,30.00,SW,231,0.0,0.0,68,0.00,,,0.00,32767.00,ALWS 1.0-beta,2013-01-06 22:52:00,
2013-01-06 17:57:00,37.1,27.9,30.01,SW,231,0.0,1.0,69,0.00,,,0.00,32767.00,ALWS 1.0-beta,2013-01-06 22:57:00,
2013-01-06 18:02:00,36.9,27.7,30.01,SW,236,5.0,6.0,69,0.00,,,0.00,32767.00,ALWS 1.0-beta,2013-01-06 23:02:00,
2013-01-06 18:07:00,37.0,27.8,30.01,SW,234,4.0,4.0,69,0.00,,,0.00,32767.00,ALWS 1.0-beta,2013-01-06 23:07:00,
2013-01-06 18:12:00,37.2,27.6,30.01,SW,230,4.0,4.0,68,0.00,,,0.00,32767.00,ALWS 1.0-beta,2013-01-06 23:12:00,
2013-01-06 18:17:00,37.5,27.9,30.02,SW,223,2.0,4.0,68,0.00,,,0.00,32767.00,ALWS 1.0-beta,2013-01-06 23:17:00,
2013-01-06 18:22:00,37.6,27.6,30.01,WSW,240,2.0,5.0,67,0.00,,,0.00,32767.00,ALWS 1.0-beta,2013-01-06 23:22:00,
2013-01-06 18:27:00,37.7,27.8,30.02,WSW,240,0.0,1.0,67,0.00,,,0.00,32767.00,ALWS 1.0-beta,2013-01-06 23:27:00,
2013-01-06 18:32:00,37.7,27.8,30.02,WSW,240,0.0,0.0,67,0.00,,,0.00,32767.00,ALWS 1.0-beta,2013-01-06 23:32:00,
2013-01-06 18:37:00,37.7,27.8,30.02,WSW,240,0.0,0.0,67,0.00,,,0.00,32767.00,ALWS 1.0-beta,2013-01-06 23:37:00,
2013-01-06 18:42:00,37.7,27.8,30.02,WSW,240,0.0,0.0,67,0.00,,,0.00,32767.00,ALWS 1.0-beta,2013-01-06 23:42:00,
2013-01-06 18:47:00,37.5,27.5,30.02,WSW,240,0.0,0.0,67,0.00,,,0.00,32767.00,ALWS 1.0-beta,2013-01-06 23:47:00,
2013-01-06 18:52:00,37.3,27.4,30.02,WSW,240,0.0,0.0,67,0.00,,,0.00,32767.00,ALWS 1.0-beta,2013-01-06 23:52:00,
2013-01-06 18:57:00,37.1,27.5,30.02,WSW,240,0.0,0.0,68,0.00,,,0.00,32767.00,ALWS 1.0-beta,2013-01-06 23:57:00,
2013-01-06 19:02:00,36.8,27.2,30.02,WSW,240,0.0,0.0,68,0.00,,,0.00,32767.00,ALWS 1.0-beta,2013-01-07 00:02:00,
2013-01-06 19:07:00,36.6,27.4,30.03,WSW,240,0.0,0.0,69,0.00,,,0.00,32767.00,ALWS 1.0-beta,2013-01-07 00:07:00,
2013-01-06 19:12:00,36.3,27.1,30.03,WSW,240,0.0,0.0,69,0.00,,,0.00,32767.00,ALWS 1.0-beta,2013-01-07 00:12:00,
2013-01-06 19:17:00,36.1,27.3,30.02,WSW,240,0.0,0.0,70,0.00,,,0.00,32767.00,ALWS 1.0-beta,2013-01-07 00:17:00,
2013-01-06 19:22:00,36.0,27.2,30.03,WSW,240,0.0,3.0,70,0.00,,,0.00,32767.00,ALWS 1.0-beta,2013-01-07 00:22:00,
2013-01-06 19:27:00,36.0,27.2,30.03,WSW,240,0.0,4.0,70,0.00,,,0.00,32767.00,ALWS 1.0-beta,2013-01-07 00:27:00,
2013-01-06 19:32:00,35.9,27.1,30.03,WSW,240,0.0,0.0,70,0.00,,,0.00,32767.00,ALWS 1.0-beta,2013-01-07 00:32:00,
2013-01-06 19:37:00,35.7,26.9,30.03,WSW,240,2.0,2.0,70,0.00,,,0.00,32767.00,ALWS 1.0-beta,2013-01-07 00:37:00,
2013-01-06 19:42:00,35.6,27.1,30.03,WSW,240,0.0,1.0,71,0.00,,,0.00,32767.00,ALWS 1.0-beta,2013-01-07 00:42:00,
2013-01-06 19:47:00,35.5,27.0,30.03,WSW,240,2.0,2.0,71,0.00,,,0.00,32767.00,ALWS 1.0-beta,2013-01-07 00:47:00,
2013-01-06 19:52:00,35.3,26.9,30.03,WSW,240,0.0,0.0,71,0.00,,,0.00,32767.00,ALWS 1.0-beta,2013-01-07 00:52:00,
2013-01-06 19:57:00,35.2,26.8,30.03,WSW,240,0.0,0.0,71,0.00,,,0.00,32767.00,ALWS 1.0-beta,2013-01-07 00:57:00,
2013-01-06 20:02:00,35.1,27.0,30.03,WSW,240,4.0,4.0,72,0.00,,,0.00,32767.00,ALWS 1.0-beta,2013-01-07 01:02:00,
2013-01-06 20:07:00,35.0,26.9,30.03,WSW,240,0.0,1.0,72,0.00,,,0.00,32767.00,ALWS 1.0-beta,2013-01-07 01:07:00,
2013-01-06 20:12:00,34.9,26.8,30.03,WSW,238,0.0,0.0,72,0.00,,,0.00,32767.00,ALWS 1.0-beta,2013-01-07 01:12:00,
2013-01-06 20:17:00,34.8,26.7,30.03,WSW,238,0.0,0.0,72,0.00,,,0.00,32767.00,ALWS 1.0-beta,2013-01-07 01:17:00,
2013-01-06 20:22:00,34.5,26.1,30.03,WSW,239,0.0,0.0,71,0.00,,,0.00,32767.00,ALWS 1.0-beta,2013-01-07 01:22:00,
2013-01-06 20:27:00,34.4,26.3,30.03,WSW,239,0.0,0.0,72,0.00,,,0.00,32767.00,ALWS 1.0-beta,2013-01-07 01:27:00,
2013-01-06 20:32:00,34.4,26.3,30.03,WSW,239,0.0,0.0,72,0.00,,,0.00,32767.00,ALWS 1.0-beta,2013-01-07 01:32:00,
2013-01-06 20:37:00,34.1,25.7,30.03,WSW,239,0.0,0.0,71,0.00,,,0.00,32767.00,ALWS 1.0-beta,2013-01-07 01:37:00,
2013-01-06 20:42:00,33.7,25.6,30.03,WSW,238,0.0,0.0,72,0.00,,,0.00,32767.00,ALWS 1.0-beta,2013-01-07 01:42:00,
2013-01-06 20:47:00,33.5,25.5,30.03,WSW,238,0.0,0.0,72,0.00,,,0.00,32767.00,ALWS 1.0-beta,2013-01-07 01:47:00,
2013-01-06 20:52:00,33.2,25.5,30.03,WSW,240,0.0,0.0,73,0.00,,,0.00,32767.00,ALWS 1.0-beta,2013-01-07 01:52:00,
2013-01-06 20:57:00,30.8,23.8,30.04,WSW,240,0.0,0.0,75,0.00,,,0.00,32767.00,ALWS 1.0-beta,2013-01-07 01:57:00,
2013-01-06 21:02:00,28.6,23.5,30.04,WSW,240,0.0,0.0,81,0.00,,,0.00,32767.00,ALWS 1.0-beta,2013-01-07 02:02:00,
2013-01-06 21:07:00,27.9,23.4,30.04,WSW,240,0.0,0.0,83,0.00,,,0.00,32767.00,ALWS 1.0-beta,2013-01-07 02:07:00,
2013-01-06 21:12:00,27.8,23.6,30.04,WSW,240,0.0,0.0,84,0.00,,,0.00,32767.00,ALWS 1.0-beta,2013-01-07 02:12:00,
2013-01-06 21:17:00,27.2,23.3,30.04,WSW,240,0.0,0.0,85,0.00,,,0.00,32767.00,ALWS 1.0-beta,2013-01-07 02:17:00,
2013-01-06 21:22:00,27.0,23.1,30.04,WSW,240,0.0,0.0,85,0.00,,,0.00,32767.00,ALWS 1.0-beta,2013-01-07 02:22:00,
2013-01-06 21:27:00,27.0,23.4,30.04,WSW,240,0.0,0.0,86,0.00,,,0.00,32767.00,ALWS 1.0-beta,2013-01-07 02:27:00,
2013-01-06 21:32:00,26.6,23.0,30.04,WSW,240,0.0,0.0,86,0.00,,,0.00,32767.00,ALWS 1.0-beta,2013-01-07 02:32:00,
2013-01-06 22:29:00,26.1,23.3,30.05,WSW,240,0.0,0.0,89,0.00,,,0.00,32767.00,ALWS 1.0-beta,2013-01-07 03:29:00,
2013-01-06 22:34:00,26.2,23.4,30.05,WSW,240,0.0,0.0,89,0.00,,,0.00,32767.00,ALWS 1.0-beta,2013-01-07 03:34:00,
2013-01-06 22:39:00,25.9,23.1,30.05,WSW,240,0.0,0.0,89,0.00,,,0.00,32767.00,ALWS 1.0-beta,2013-01-07 03:39:00,
2013-01-06 22:44:00,25.6,22.8,30.05,WSW,240,0.0,0.0,89,0.00,,,0.00,32767.00,ALWS 1.0-beta,2013-01-07 03:44:00,
2013-01-06 22:49:00,25.1,22.3,30.06,WSW,240,0.0,0.0,89,0.00,,,0.00,32767.00,ALWS 1.0-beta,2013-01-07 03:49:00,
2013-01-06 22:54:00,24.9,22.4,30.05,WSW,240,0.0,0.0,90,0.00,,,0.00,32767.00,ALWS 1.0-beta,2013-01-07 03:54:00,
2013-01-06 22:59:00,25.3,22.8,30.05,WSW,240,0.0,0.0,90,0.00,,,0.00,32767.00,ALWS 1.0-beta,2013-01-07 03:59:00,
2013-01-06 23:02:00,26.9,24.1,30.07,WSW,240,0.0,0.0,89,0.00,,,0.00,32767.00,ALWS 1.0-beta,2013-01-07 04:02:00,
2013-01-06 23:03:00,27.3,24.5,30.07,WSW,240,0.0,0.0,89,0.00,,,0.00,32767.00,ALWS 1.0-beta,2013-01-07 04:03:00,
2013-01-06 23:04:00,25.4,22.9,30.06,WSW,240,0.0,0.0,90,0.00,,,0.00,32767.00,ALWS 1.0-beta,2013-01-07 04:04:00,
2013-01-06 23:09:00,26.3,23.8,30.06,WSW,240,0.0,0.0,90,0.00,,,0.00,32767.00,ALWS 1.0-beta,2013-01-07 04:09:00,
2013-01-06 23:14:00,26.2,23.4,30.06,WSW,240,0.0,0.0,89,0.00,,,0.00,32767.00,ALWS 1.0-beta,2013-01-07 04:14:00,
2013-01-06 23:19:00,25.6,22.5,30.06,WSW,240,0.0,0.0,88,0.00,,,0.00,32767.00,ALWS 1.0-beta,2013-01-07 04:19:00,
2013-01-06 23:24:00,26.1,23.3,30.06,WSW,240,0.0,0.0,89,0.00,,,0.00,32767.00,ALWS 1.0-beta,2013-01-07 04:24:00,
2013-01-06 23:26:00,26.5,23.7,30.07,WSW,240,0.0,0.0,89,0.00,,,0.00,32767.00,ALWS 1.0-beta,2013-01-07 04:26:00,
2013-01-06 23:27:00,26.7,24.2,30.07,WSW,240,0.0,0.0,90,0.00,,,0.00,32767.00,ALWS 1.0-beta,2013-01-07 04:27:00,
2013-01-06 23:28:00,26.9,24.1,30.07,WSW,240,0.0,0.0,89,0.00,,,0.00,32767.00,ALWS 1.0-beta,2013-01-07 04:28:00,
2013-01-06 23:29:00,25.8,22.7,30.06,WSW,240,0.0,0.0,88,0.00,,,0.00,32767.00,ALWS 1.0-beta,2013-01-07 04:29:00,
2013-01-06 23:30:00,27.3,24.5,30.07,WSW,240,0.0,0.0,89,0.00,,,0.00,32767.00,ALWS 1.0-beta,2013-01-07 04:30:00,
2013-01-06 23:31:00,27.8,25.2,30.07,WSW,240,0.0,0.0,90,0.00,,,0.00,32767.00,ALWS 1.0-beta,2013-01-07 04:31:00,
2013-01-06 23:34:00,25.7,22.9,30.06,WSW,240,0.0,0.0,89,0.00,,,0.00,32767.00,ALWS 1.0-beta,2013-01-07 04:34:00,
2013-01-06 23:39:00,25.7,22.9,30.06,WSW,240,0.0,0.0,89,0.00,,,0.00,32767.00,ALWS 1.0-beta,2013-01-07 04:39:00,
2013-01-06 23:44:00,25.9,23.1,30.06,WSW,240,0.0,0.0,89,0.00,,,0.00,32767.00,ALWS 1.0-beta,2013-01-07 04:44:00,
2013-01-06 23:49:00,26.0,23.2,30.07,WSW,240,0.0,0.0,89,0.00,,,0.00,32767.00,ALWS 1.0-beta,2013-01-07 04:49:00,
2013-01-06 23:54:00,26.2,23.4,30.07,WSW,240,0.0,0.0,89,0.00,,,0.00,32767.00,ALWS 1.0-beta,2013-01-07 04:54:00,
2013-01-06 23:59:00,26.3,23.5,30.07,WSW,240,0.0,0.0,89,0.00,,,0.00,32767.00,ALWS 1.0-beta,2013-01-07 04:59:00,